Time,TemperatureF,DewpointF,PressureIn,WindDirection,WindDirectionDegrees,WindSpeedMPH,WindSpeedGustMPH,Humidity,HourlyPrecipIn,Conditions,Clouds,dailyrainin,SoftwareType,DateUTC
2013-04-13 00:00:00,28.2,25.9,29.90,NW,322,7.0,9.0,91,0.03,,,0.00,VWS V14.00,2013-04-13 05:00:00,
2013-04-13 00:07:00,28.1,25.8,29.90,NW,310,0.0,9.0,91,0.03,,,0.00,VWS V14.00,2013-04-13 05:07:00,
2013-04-13 00:12:00,28.1,25.8,29.90,NW,308,0.0,1.0,91,0.03,,,0.00,VWS V14.00,2013-04-13 05:12:00,
2013-04-13 00:17:00,28.1,25.8,29.90,NW,310,0.0,1.0,91,0.03,,,0.00,VWS V14.00,2013-04-13 05:17:00,
2013-04-13 00:21:00,28.0,25.7,29.90,NW,319,0.0,1.0,91,0.03,,,0.00,VWS V14.00,2013-04-13 05:21:00,
2013-04-13 00:27:00,28.0,25.7,29.90,NW,310,0.0,1.0,91,0.03,,,0.00,VWS V14.00,2013-04-13 05:27:00,
2013-04-13 00:32:00,27.9,25.6,29.90,NW,317,0.0,0.0,91,0.03,,,0.00,VWS V14.00,2013-04-13 05:32:00,
2013-04-13 00:37:00,27.9,25.6,29.90,NW,317,0.0,1.0,91,0.03,,,0.00,VWS V14.00,2013-04-13 05:37:00,
2013-04-13 00:42:00,27.8,25.5,29.90,NNW,335,0.0,7.0,91,0.00,,,0.00,VWS V14.00,2013-04-13 05:42:00,
2013-04-13 00:47:00,27.8,25.5,29.90,NNW,337,0.0,9.0,91,0.00,,,0.00,VWS V14.00,2013-04-13 05:47:00,
2013-04-13 00:52:00,27.8,25.5,29.90,NNW,330,0.0,1.0,91,0.00,,,0.00,VWS V14.00,2013-04-13 05:52:00,
2013-04-13 00:57:00,27.8,25.8,29.90,NW,315,5.0,8.0,92,0.00,,,0.00,VWS V14.00,2013-04-13 05:57:00,
2013-04-13 01:02:00,27.8,25.5,29.90,NW,318,0.0,1.0,91,0.00,,,0.00,VWS V14.00,2013-04-13 06:02:00,
2013-04-13 01:07:00,27.7,25.4,29.90,NW,314,3.0,7.0,91,0.00,,,0.00,VWS V14.00,2013-04-13 06:07:00,
2013-04-13 01:12:00,27.7,25.4,29.90,NW,314,0.0,1.0,91,0.00,,,0.00,VWS V14.00,2013-04-13 06:12:00,
2013-04-13 01:17:00,27.6,25.3,29.90,NW,315,0.0,1.0,91,0.00,,,0.00,VWS V14.00,2013-04-13 06:17:00,
2013-04-13 01:22:00,27.6,25.3,29.90,NW,317,0.0,0.0,91,0.00,,,0.00,VWS V14.00,2013-04-13 06:22:00,
2013-04-13 01:27:00,27.6,25.3,29.90,NW,319,0.0,1.0,91,0.00,,,0.00,VWS V14.00,2013-04-13 06:27:00,
2013-04-13 01:32:00,27.6,25.3,29.90,NW,319,0.0,0.0,91,0.00,,,0.00,VWS V14.00,2013-04-13 06:32:00,
2013-04-13 01:37:00,27.6,25.3,29.90,NNW,332,0.0,8.0,91,0.00,,,0.00,VWS V14.00,2013-04-13 06:37:00,
2013-04-13 01:42:00,27.6,25.3,29.90,NNW,332,0.0,0.0,91,0.00,,,0.00,VWS V14.00,2013-04-13 06:42:00,
2013-04-13 01:48:00,27.6,25.3,29.90,NW,318,0.0,1.0,91,0.00,,,0.00,VWS V14.00,2013-04-13 06:48:00,
2013-04-13 01:53:00,27.6,25.3,29.90,NW,319,0.0,1.0,91,0.00,,,0.00,VWS V14.00,2013-04-13 06:53:00,
2013-04-13 01:58:00,27.6,25.3,29.90,NW,317,0.0,1.0,91,0.00,,,0.00,VWS V14.00,2013-04-13 06:58:00,
2013-04-13 02:03:00,27.6,25.6,29.90,NW,319,0.0,1.0,92,0.00,,OVC007,0.00,VWS V14.00,2013-04-13 07:03:00,
2013-04-13 02:08:00,27.6,25.3,29.90,NW,323,0.0,1.0,91,0.00,,OVC007,0.00,VWS V14.00,2013-04-13 07:08:00,
2013-04-13 02:13:00,27.6,25.3,29.90,NW,326,0.0,1.0,91,0.00,,OVC007,0.00,VWS V14.00,2013-04-13 07:13:00,
2013-04-13 02:18:00,27.7,25.4,29.90,NW,322,0.0,1.0,91,0.00,,OVC007,0.00,VWS V14.00,2013-04-13 07:18:00,
2013-04-13 02:23:00,27.6,25.3,29.90,NW,322,0.0,1.0,91,0.00,,OVC007,0.00,VWS V14.00,2013-04-13 07:23:00,
2013-04-13 02:28:00,27.7,25.4,29.90,NW,322,0.0,1.0,91,0.00,,OVC007,0.00,VWS V14.00,2013-04-13 07:28:00,
2013-04-13 02:33:00,27.7,25.4,29.89,NW,321,0.0,0.0,91,0.00,,OVC007,0.00,VWS V14.00,2013-04-13 07:33:00,
2013-04-13 02:38:00,27.7,25.4,29.89,NW,320,0.0,1.0,91,0.00,,OVC007,0.00,VWS V14.00,2013-04-13 07:38:00,
2013-04-13 02:43:00,27.7,25.4,29.89,NW,315,0.0,0.0,91,0.00,,OVC007,0.00,VWS V14.00,2013-04-13 07:43:00,
2013-04-13 02:48:00,27.7,25.4,29.89,NW,315,0.0,1.0,91,0.00,,OVC007,0.00,VWS V14.00,2013-04-13 07:48:00,
2013-04-13 02:53:00,27.6,25.3,29.89,NW,314,0.0,0.0,91,0.00,,OVC007,0.00,VWS V14.00,2013-04-13 07:53:00,
2013-04-13 02:58:00,27.6,25.3,29.89,NW,314,0.0,0.0,91,0.00,,OVC007,0.00,VWS V14.00,2013-04-13 07:58:00,
2013-04-13 03:03:00,27.7,25.4,29.89,NW,314,0.0,1.0,91,0.00,,OVC007,0.00,VWS V14.00,2013-04-13 08:03:00,
2013-04-13 03:08:00,27.7,25.4,29.89,NW,310,0.0,1.0,91,0.00,,OVC007,0.00,VWS V14.00,2013-04-13 08:08:00,
2013-04-13 03:13:00,27.7,25.4,29.89,NW,311,0.0,0.0,91,0.00,,OVC007,0.00,VWS V14.00,2013-04-13 08:13:00,
2013-04-13 03:19:00,27.8,25.5,29.88,NW,311,0.0,1.0,91,0.00,,OVC007,0.00,VWS V14.00,2013-04-13 08:19:00,
2013-04-13 03:24:00,27.8,25.5,29.88,NW,316,0.0,1.0,91,0.00,,OVC007,0.00,VWS V14.00,2013-04-13 08:24:00,
2013-04-13 03:29:00,27.8,25.5,29.88,NW,317,0.0,1.0,91,0.00,,OVC007,0.00,VWS V14.00,2013-04-13 08:29:00,
2013-04-13 03:34:00,27.9,25.6,29.88,NW,318,0.0,6.0,91,0.00,,OVC007,0.00,VWS V14.00,2013-04-13 08:34:00,
2013-04-13 03:39:00,27.9,25.6,29.88,NW,314,0.0,6.0,91,0.00,,OVC007,0.00,VWS V14.00,2013-04-13 08:39:00,
2013-04-13 03:44:00,27.9,25.6,29.88,NW,309,0.0,1.0,91,0.00,,OVC007,0.00,VWS V14.00,2013-04-13 08:44:00,
2013-04-13 03:49:00,28.0,25.7,29.88,NW,316,0.0,1.0,91,0.00,,OVC007,0.00,VWS V14.00,2013-04-13 08:49:00,
2013-04-13 03:54:00,28.0,25.7,29.88,NW,316,0.0,1.0,91,0.00,,OVC007,0.00,VWS V14.00,2013-04-13 08:54:00,
2013-04-13 03:59:00,28.0,25.7,29.88,NW,319,0.0,1.0,91,0.00,,OVC007,0.00,VWS V14.00,2013-04-13 08:59:00,
2013-04-13 04:04:00,28.0,25.7,29.88,NW,320,0.0,1.0,91,0.00,,OVC010,0.00,VWS V14.00,2013-04-13 09:04:00,
2013-04-13 04:10:00,28.0,25.7,29.88,NNW,328,4.0,10.0,91,0.00,,OVC010,0.00,VWS V14.00,2013-04-13 09:10:00,
2013-04-13 04:15:00,27.9,25.6,29.88,NNW,334,0.0,10.0,91,0.00,,OVC010,0.00,VWS V14.00,2013-04-13 09:15:00,
2013-04-13 04:20:00,27.8,25.5,29.88,NNW,337,6.0,7.0,91,0.00,,OVC010,0.00,VWS V14.00,2013-04-13 09:20:00,
2013-04-13 04:25:00,27.6,25.3,29.88,NNW,337,0.0,7.0,91,0.00,,OVC010,0.00,VWS V14.00,2013-04-13 09:25:00,
2013-04-13 04:31:00,27.4,25.1,29.88,NNW,337,0.0,1.0,91,0.00,,OVC010,0.00,VWS V14.00,2013-04-13 09:31:00,
2013-04-13 04:36:00,27.2,24.9,29.88,NNW,334,0.0,1.0,91,0.00,,OVC010,0.00,VWS V14.00,2013-04-13 09:36:00,
2013-04-13 04:41:00,27.0,24.5,29.88,NNW,335,0.0,7.0,90,0.00,,OVC010,0.00,VWS V14.00,2013-04-13 09:41:00,
2013-04-13 04:47:00,26.8,24.5,29.89,NNW,339,0.0,7.0,91,0.00,,OVC010,0.00,VWS V14.00,2013-04-13 09:47:00,
2013-04-13 04:52:00,26.7,24.4,29.88,NNW,336,0.0,1.0,91,0.00,,OVC010,0.00,VWS V14.00,2013-04-13 09:52:00,
2013-04-13 04:57:00,26.6,24.3,29.88,NNW,333,5.0,9.0,91,0.00,,OVC010,0.00,VWS V14.00,2013-04-13 09:57:00,
2013-04-13 05:02:00,26.5,24.2,29.88,NNW,332,0.0,0.0,91,0.00,,,0.00,VWS V14.00,2013-04-13 10:02:00,
2013-04-13 05:07:00,26.4,23.9,29.89,NNW,334,0.0,1.0,90,0.00,,,0.00,VWS V14.00,2013-04-13 10:07:00,
2013-04-13 05:13:00,26.2,23.7,29.89,NNW,347,4.0,5.0,90,0.00,,,0.00,VWS V14.00,2013-04-13 10:13:00,
2013-04-13 05:18:00,26.0,23.5,29.89,NNW,336,0.0,9.0,90,0.00,,,0.00,VWS V14.00,2013-04-13 10:18:00,
2013-04-13 05:23:00,25.8,23.3,29.89,NNW,336,0.0,1.0,90,0.00,,,0.00,VWS V14.00,2013-04-13 10:23:00,
2013-04-13 05:28:00,25.5,23.0,29.89,NNW,338,0.0,1.0,90,0.00,,,0.00,VWS V14.00,2013-04-13 10:28:00,
2013-04-13 05:33:00,25.3,22.8,29.89,NNW,338,0.0,0.0,90,0.00,,,0.00,VWS V14.00,2013-04-13 10:33:00,
2013-04-13 05:38:00,25.1,22.6,29.89,NNW,337,0.0,1.0,90,0.00,,,0.00,VWS V14.00,2013-04-13 10:38:00,
2013-04-13 05:43:00,25.0,22.5,29.89,NNW,341,0.0,0.0,90,0.00,,,0.00,VWS V14.00,2013-04-13 10:43:00,
2013-04-13 05:48:00,24.9,22.4,29.89,NNW,341,0.0,1.0,90,0.00,,,0.00,VWS V14.00,2013-04-13 10:48:00,
2013-04-13 05:53:00,24.8,22.3,29.89,NNW,341,0.0,0.0,90,0.00,,,0.00,VWS V14.00,2013-04-13 10:53:00,
2013-04-13 05:58:00,24.6,22.1,29.89,NNW,341,0.0,0.0,90,0.00,,,0.00,VWS V14.00,2013-04-13 10:58:00,
2013-04-13 06:04:00,24.5,22.0,29.89,NNW,341,0.0,0.0,90,0.00,,,0.00,VWS V14.00,2013-04-13 11:04:00,
2013-04-13 06:09:00,24.5,22.0,29.90,NNW,341,0.0,0.0,90,0.00,,,0.00,VWS V14.00,2013-04-13 11:09:00,
2013-04-13 06:13:00,24.6,22.4,29.90,NNW,341,0.0,0.0,91,0.00,,,0.00,VWS V14.00,2013-04-13 11:13:00,
2013-04-13 06:19:00,24.8,22.5,29.90,NNW,340,0.0,0.0,91,0.00,,,0.00,VWS V14.00,2013-04-13 11:19:00,
2013-04-13 06:24:00,24.9,22.6,29.90,NNW,341,0.0,0.0,91,0.00,,,0.00,VWS V14.00,2013-04-13 11:24:00,
2013-04-13 06:29:00,25.0,22.8,29.90,NNW,341,0.0,0.0,91,0.00,,,0.00,VWS V14.00,2013-04-13 11:29:00,
2013-04-13 06:34:00,25.1,22.9,29.90,NNW,340,0.0,0.0,91,0.00,,,0.00,VWS V14.00,2013-04-13 11:34:00,
2013-04-13 06:39:00,25.2,23.0,29.90,NNW,338,0.0,0.0,91,0.00,,,0.00,VWS V14.00,2013-04-13 11:39:00,
2013-04-13 06:44:00,25.3,23.0,29.90,NNW,338,0.0,0.0,91,0.00,,,0.00,VWS V14.00,2013-04-13 11:44:00,
2013-04-13 06:49:00,25.4,23.1,29.90,NNW,338,0.0,0.0,91,0.00,,,0.00,VWS V14.00,2013-04-13 11:49:00,
2013-04-13 06:54:00,25.5,23.2,29.90,NNW,328,0.0,0.0,91,0.00,,,0.00,VWS V14.00,2013-04-13 11:54:00,
2013-04-13 06:59:00,25.7,23.4,29.90,NNW,329,0.0,0.0,91,0.00,,,0.00,VWS V14.00,2013-04-13 11:59:00,
2013-04-13 07:05:00,25.9,23.6,29.90,NNW,333,0.0,0.0,91,0.00,,OVC011,0.00,VWS V14.00,2013-04-13 12:05:00,
2013-04-13 07:10:00,26.0,23.7,29.90,NNW,333,0.0,0.0,91,0.00,,OVC011,0.00,VWS V14.00,2013-04-13 12:10:00,
2013-04-13 07:15:00,26.2,23.9,29.91,NNW,333,0.0,0.0,91,0.00,,OVC011,0.00,VWS V14.00,2013-04-13 12:15:00,
2013-04-13 07:20:00,26.2,23.9,29.91,NNW,333,0.0,0.0,91,0.00,,OVC011,0.00,VWS V14.00,2013-04-13 12:20:00,
2013-04-13 07:25:00,26.4,24.1,29.90,NNW,333,0.0,0.0,91,0.00,,OVC011,0.00,VWS V14.00,2013-04-13 12:25:00,
2013-04-13 07:31:00,26.5,24.2,29.91,NNW,333,0.0,0.0,91,0.00,,OVC011,0.00,VWS V14.00,2013-04-13 12:31:00,
2013-04-13 07:36:00,26.6,24.3,29.90,NNW,333,0.0,0.0,91,0.00,,OVC011,0.00,VWS V14.00,2013-04-13 12:36:00,
2013-04-13 07:41:00,26.8,24.5,29.91,NNW,333,0.0,0.0,91,0.00,,OVC011,0.00,VWS V14.00,2013-04-13 12:41:00,
2013-04-13 07:46:00,26.9,24.6,29.91,NNW,333,0.0,0.0,91,0.00,,OVC011,0.00,VWS V14.00,2013-04-13 12:46:00,
2013-04-13 07:51:00,27.0,24.5,29.91,NNW,339,0.0,0.0,90,0.00,,OVC011,0.00,VWS V14.00,2013-04-13 12:51:00,
2013-04-13 07:56:00,27.0,24.5,29.91,NNW,347,0.0,0.0,90,0.00,,OVC011,0.00,VWS V14.00,2013-04-13 12:56:00,
2013-04-13 08:01:00,27.1,24.6,29.91,North,357,0.0,0.0,90,0.00,,OVC011,0.00,VWS V14.00,2013-04-13 13:01:00,
2013-04-13 08:06:00,27.1,24.3,29.91,North,358,0.0,0.0,89,0.00,,OVC013,0.00,VWS V14.00,2013-04-13 13:06:00,
2013-04-13 08:11:00,26.9,24.1,29.91,North,0,0.0,0.0,89,0.00,,OVC013,0.00,VWS V14.00,2013-04-13 13:11:00,
2013-04-13 08:17:00,26.9,24.1,29.91,North,0,0.0,0.0,89,0.00,,OVC013,0.00,VWS V14.00,2013-04-13 13:17:00,
2013-04-13 08:22:00,26.9,24.1,29.91,North,0,0.0,0.0,89,0.00,,OVC013,0.00,VWS V14.00,2013-04-13 13:22:00,
2013-04-13 08:27:00,26.9,23.8,29.91,North,0,0.0,0.0,88,0.00,,OVC013,0.00,VWS V14.00,2013-04-13 13:27:00,
2013-04-13 08:32:00,27.0,23.9,29.91,North,0,0.0,0.0,88,0.00,,OVC013,0.00,VWS V14.00,2013-04-13 13:32:00,
2013-04-13 08:37:00,27.1,24.0,29.91,North,0,0.0,0.0,88,0.00,,OVC013,0.00,VWS V14.00,2013-04-13 13:37:00,
2013-04-13 08:42:00,27.1,23.8,29.91,North,0,0.0,0.0,87,0.00,,OVC013,0.00,VWS V14.00,2013-04-13 13:42:00,
2013-04-13 08:48:00,27.1,23.8,29.91,North,0,0.0,0.0,87,0.00,,OVC013,0.00,VWS V14.00,2013-04-13 13:48:00,
2013-04-13 08:53:00,27.1,23.5,29.92,North,0,0.0,0.0,86,0.00,,OVC013,0.00,VWS V14.00,2013-04-13 13:53:00,
2013-04-13 08:58:00,27.2,23.6,29.91,North,0,0.0,0.0,86,0.00,,OVC013,0.00,VWS V14.00,2013-04-13 13:58:00,
2013-04-13 09:03:00,27.2,23.6,29.91,North,0,0.0,0.0,86,0.00,,OVC011,0.00,VWS V14.00,2013-04-13 14:03:00,
2013-04-13 09:08:00,27.3,23.7,29.91,North,0,0.0,0.0,86,0.00,,OVC011,0.00,VWS V14.00,2013-04-13 14:08:00,
2013-04-13 09:13:00,27.3,23.7,29.91,North,0,0.0,0.0,86,0.01,,OVC011,0.01,VWS V14.00,2013-04-13 14:13:00,
2013-04-13 09:18:00,27.5,23.6,29.91,North,0,0.0,0.0,85,0.01,,OVC011,0.01,VWS V14.00,2013-04-13 14:18:00,
2013-04-13 09:23:00,27.5,23.3,29.91,North,0,0.0,0.0,84,0.01,,OVC011,0.01,VWS V14.00,2013-04-13 14:23:00,
2013-04-13 09:28:00,27.5,23.3,29.91,North,0,0.0,0.0,84,0.01,,OVC011,0.01,VWS V14.00,2013-04-13 14:28:00,
2013-04-13 09:33:00,27.4,23.2,29.91,North,0,0.0,0.0,84,0.01,,OVC011,0.01,VWS V14.00,2013-04-13 14:33:00,
2013-04-13 09:38:00,27.4,23.2,29.91,North,0,0.0,0.0,84,0.01,,OVC011,0.01,VWS V14.00,2013-04-13 14:38:00,
2013-04-13 09:44:00,27.4,23.2,29.91,North,0,0.0,0.0,84,0.01,,OVC011,0.01,VWS V14.00,2013-04-13 14:44:00,
2013-04-13 09:49:00,27.5,23.3,29.91,North,0,0.0,0.0,84,0.01,,OVC011,0.01,VWS V14.00,2013-04-13 14:49:00,
2013-04-13 09:54:00,27.6,23.4,29.91,North,0,0.0,0.0,84,0.01,,OVC011,0.01,VWS V14.00,2013-04-13 14:54:00,
2013-04-13 09:59:00,27.9,23.7,29.91,North,0,0.0,0.0,84,0.01,,OVC011,0.01,VWS V14.00,2013-04-13 14:59:00,
2013-04-13 10:04:00,28.2,24.0,29.91,North,0,0.0,0.0,84,0.01,,,0.01,VWS V14.00,2013-04-13 15:04:00,
2013-04-13 10:09:00,28.3,24.1,29.91,North,0,0.0,0.0,84,0.01,,,0.01,VWS V14.00,2013-04-13 15:09:00,
2013-04-13 10:14:00,28.5,24.0,29.91,North,0,0.0,0.0,83,0.01,,,0.01,VWS V14.00,2013-04-13 15:14:00,
2013-04-13 10:19:00,28.6,24.1,29.91,North,0,0.0,0.0,83,0.01,,,0.01,VWS V14.00,2013-04-13 15:19:00,
2013-04-13 10:25:00,28.8,24.3,29.91,North,0,0.0,0.0,83,0.00,,,0.01,VWS V14.00,2013-04-13 15:25:00,
2013-04-13 10:30:00,29.0,24.5,29.92,North,0,0.0,0.0,83,0.00,,OVC015,0.01,VWS V14.00,2013-04-13 15:30:00,
2013-04-13 10:35:00,29.2,24.7,29.91,North,0,0.0,0.0,83,0.00,,OVC015,0.01,VWS V14.00,2013-04-13 15:35:00,
2013-04-13 10:40:00,29.5,24.7,29.91,North,0,0.0,0.0,82,0.00,,OVC015,0.01,VWS V14.00,2013-04-13 15:40:00,
2013-04-13 10:45:00,29.5,24.7,29.91,North,0,0.0,0.0,82,0.00,,OVC015,0.01,VWS V14.00,2013-04-13 15:45:00,
2013-04-13 10:50:00,29.5,24.7,29.91,North,0,0.0,0.0,82,0.00,,OVC015,0.01,VWS V14.00,2013-04-13 15:50:00,
2013-04-13 10:55:00,29.7,24.9,29.91,North,0,0.0,0.0,82,0.00,,OVC015,0.01,VWS V14.00,2013-04-13 15:55:00,
2013-04-13 11:00:00,30.2,25.4,29.91,North,0,0.0,0.0,82,0.00,,OVC015,0.01,VWS V14.00,2013-04-13 16:00:00,
2013-04-13 11:06:00,30.7,25.9,29.91,North,0,0.0,0.0,82,0.00,,OVC022,0.01,VWS V14.00,2013-04-13 16:06:00,
2013-04-13 11:11:00,31.1,26.0,29.92,North,0,0.0,0.0,81,0.00,,OVC022,0.01,VWS V14.00,2013-04-13 16:11:00,
2013-04-13 11:16:00,31.2,26.1,29.92,North,0,0.0,0.0,81,0.00,,OVC022,0.01,VWS V14.00,2013-04-13 16:16:00,
2013-04-13 11:21:00,31.3,25.9,29.92,North,0,0.0,0.0,80,0.00,,OVC022,0.01,VWS V14.00,2013-04-13 16:21:00,
2013-04-13 11:26:00,31.2,25.5,29.92,North,0,0.0,0.0,79,0.00,,OVC022,0.01,VWS V14.00,2013-04-13 16:26:00,
2013-04-13 11:31:00,31.5,26.0,29.92,North,0,0.0,0.0,80,0.00,,OVC022,0.01,VWS V14.00,2013-04-13 16:31:00,
2013-04-13 11:36:00,31.6,25.9,29.92,North,0,0.0,0.0,79,0.00,,OVC022,0.01,VWS V14.00,2013-04-13 16:36:00,
2013-04-13 11:41:00,32.2,26.4,29.92,North,0,0.0,0.0,79,0.00,,OVC022,0.01,VWS V14.00,2013-04-13 16:41:00,
2013-04-13 11:46:00,32.8,27.0,29.92,North,0,0.0,0.0,79,0.00,,OVC022,0.01,VWS V14.00,2013-04-13 16:46:00,
2013-04-13 11:52:00,33.1,27.0,29.92,North,0,0.0,0.0,78,0.00,,OVC022,0.01,VWS V14.00,2013-04-13 16:52:00,
2013-04-13 11:57:00,33.3,26.9,29.92,North,0,0.0,0.0,77,0.00,,OVC037,0.01,VWS V14.00,2013-04-13 16:57:00,
2013-04-13 12:02:00,33.3,26.6,29.92,North,0,0.0,0.0,76,0.00,,OVC037,0.01,VWS V14.00,2013-04-13 17:02:00,
2013-04-13 12:07:00,33.4,26.7,29.92,North,0,0.0,0.0,76,0.00,,OVC037,0.01,VWS V14.00,2013-04-13 17:07:00,
2013-04-13 12:12:00,33.1,26.0,29.92,North,4,0.0,0.0,75,0.00,,OVC037,0.01,VWS V14.00,2013-04-13 17:12:00,
2013-04-13 12:17:00,33.1,26.4,29.92,North,10,0.0,0.0,76,0.00,,OVC037,0.01,VWS V14.00,2013-04-13 17:17:00,
2013-04-13 12:22:00,33.1,26.4,29.92,North,11,0.0,0.0,76,0.00,,OVC037,0.01,VWS V14.00,2013-04-13 17:22:00,
2013-04-13 12:27:00,33.3,26.2,29.92,NNE,16,0.0,0.0,75,0.00,,OVC037,0.01,VWS V14.00,2013-04-13 17:27:00,
2013-04-13 12:32:00,33.3,26.2,29.92,NNE,16,0.0,0.0,75,0.00,,OVC037,0.01,VWS V14.00,2013-04-13 17:32:00,
2013-04-13 12:37:00,33.2,26.1,29.92,NNE,16,0.0,1.0,75,0.00,,OVC037,0.01,VWS V14.00,2013-04-13 17:37:00,
2013-04-13 12:42:00,33.3,26.2,29.92,NNE,16,0.0,1.0,75,0.00,,OVC037,0.01,VWS V14.00,2013-04-13 17:42:00,
2013-04-13 12:48:00,33.4,26.0,29.92,NNE,16,0.0,1.0,74,0.00,,OVC037,0.01,VWS V14.00,2013-04-13 17:48:00,
2013-04-13 12:54:00,33.4,25.7,29.91,NNE,16,0.0,1.0,73,0.00,,OVC037,0.01,VWS V14.00,2013-04-13 17:54:00,
2013-04-13 12:59:00,33.6,25.9,29.91,NNE,17,0.0,1.0,73,0.00,,OVC037,0.01,VWS V14.00,2013-04-13 17:59:00,
2013-04-13 13:04:00,33.8,26.1,29.91,NNE,18,0.0,1.0,73,0.00,,OVC035,0.01,VWS V14.00,2013-04-13 18:04:00,
2013-04-13 13:09:00,33.8,25.7,29.91,NNE,23,0.0,1.0,72,0.00,,OVC035,0.01,VWS V14.00,2013-04-13 18:09:00,
2013-04-13 13:14:00,33.9,25.8,29.91,NNE,26,0.0,1.0,72,0.00,,OVC035,0.01,VWS V14.00,2013-04-13 18:14:00,
2013-04-13 13:19:00,34.3,25.9,29.91,NNE,26,0.0,1.0,71,0.00,,OVC035,0.01,VWS V14.00,2013-04-13 18:19:00,
2013-04-13 13:24:00,34.4,25.6,29.91,NNE,26,0.0,1.0,70,0.00,,OVC035,0.01,VWS V14.00,2013-04-13 18:24:00,
2013-04-13 13:27:00,34.3,25.2,29.91,NNE,26,0.0,1.0,69,0.00,,OVC035,0.01,VWS V14.00,2013-04-13 18:27:00,
2013-04-13 13:28:00,34.3,25.5,29.91,NNE,26,0.0,1.0,70,0.00,,OVC035,0.01,VWS V14.00,2013-04-13 18:28:00,
2013-04-13 13:33:00,34.7,25.9,29.91,NNE,28,6.0,6.0,70,0.00,,OVC035,0.01,VWS V14.00,2013-04-13 18:33:00,
2013-04-13 13:39:00,34.7,25.6,29.91,NNE,30,4.0,7.0,69,0.00,,OVC035,0.01,VWS V14.00,2013-04-13 18:39:00,
2013-04-13 13:44:00,34.9,25.8,29.91,NNE,30,0.0,1.0,69,0.00,,OVC035,0.01,VWS V14.00,2013-04-13 18:44:00,
2013-04-13 13:49:00,34.9,25.4,29.91,NNE,30,0.0,1.0,68,0.00,,OVC035,0.01,VWS V14.00,2013-04-13 18:49:00,
2013-04-13 13:54:00,35.1,25.6,29.91,NNE,30,0.0,1.0,68,0.00,,OVC035,0.01,VWS V14.00,2013-04-13 18:54:00,
2013-04-13 13:59:00,35.2,25.7,29.91,NNE,30,0.0,1.0,68,0.00,,OVC035,0.01,VWS V14.00,2013-04-13 18:59:00,
2013-04-13 14:04:00,35.1,24.9,29.90,NNE,28,0.0,1.0,66,0.00,,CLR,0.01,VWS V14.00,2013-04-13 19:04:00,
2013-04-13 14:09:00,34.9,24.7,29.90,NNE,28,0.0,1.0,66,0.00,,CLR,0.01,VWS V14.00,2013-04-13 19:09:00,
2013-04-13 14:14:00,34.8,25.0,29.90,NNE,28,0.0,1.0,67,0.00,,CLR,0.01,VWS V14.00,2013-04-13 19:14:00,
2013-04-13 14:19:00,34.9,24.7,29.90,NNE,28,0.0,1.0,66,0.00,,CLR,0.01,VWS V14.00,2013-04-13 19:19:00,
2013-04-13 14:24:00,35.0,24.4,29.91,NNE,28,0.0,1.0,65,0.00,,CLR,0.01,VWS V14.00,2013-04-13 19:24:00,
2013-04-13 14:29:00,34.9,24.3,29.91,NNE,28,0.0,1.0,65,0.00,,CLR,0.01,VWS V14.00,2013-04-13 19:29:00,
2013-04-13 14:34:00,35.0,24.4,29.91,NNE,28,0.0,1.0,65,0.00,,CLR,0.01,VWS V14.00,2013-04-13 19:34:00,
2013-04-13 14:39:00,34.9,24.3,29.91,NNE,28,0.0,1.0,65,0.00,,CLR,0.01,VWS V14.00,2013-04-13 19:39:00,
2013-04-13 14:44:00,34.8,24.2,29.91,NNE,28,0.0,0.0,65,0.00,,CLR,0.01,VWS V14.00,2013-04-13 19:44:00,
2013-04-13 14:49:00,34.8,24.6,29.91,NNE,30,0.0,1.0,66,0.00,,CLR,0.01,VWS V14.00,2013-04-13 19:49:00,
2013-04-13 14:54:00,35.0,24.8,29.91,NNE,30,0.0,1.0,66,0.00,,CLR,0.01,VWS V14.00,2013-04-13 19:54:00,
2013-04-13 14:59:00,35.2,25.0,29.91,NNE,31,0.0,1.0,66,0.00,,CLR,0.01,VWS V14.00,2013-04-13 19:59:00,
2013-04-13 15:04:00,35.5,24.9,29.91,NNE,31,0.0,1.0,65,0.00,,CLR,0.01,VWS V14.00,2013-04-13 20:04:00,
2013-04-13 15:09:00,35.5,24.9,29.91,NNE,31,0.0,1.0,65,0.00,,CLR,0.01,VWS V14.00,2013-04-13 20:09:00,
2013-04-13 15:14:00,35.5,24.9,29.91,NNE,31,0.0,0.0,65,0.00,,CLR,0.01,VWS V14.00,2013-04-13 20:14:00,
2013-04-13 15:19:00,35.3,24.7,29.91,NNE,31,0.0,0.0,65,0.00,,CLR,0.01,VWS V14.00,2013-04-13 20:19:00,
2013-04-13 15:24:00,35.4,24.8,29.90,NNE,31,0.0,1.0,65,0.00,,CLR,0.01,VWS V14.00,2013-04-13 20:24:00,
2013-04-13 15:29:00,35.4,24.1,29.90,NNE,31,0.0,1.0,63,0.00,,CLR,0.01,VWS V14.00,2013-04-13 20:29:00,
2013-04-13 15:34:00,35.4,24.8,29.90,NNE,31,0.0,1.0,65,0.00,,CLR,0.01,VWS V14.00,2013-04-13 20:34:00,
2013-04-13 15:39:00,35.5,24.9,29.90,NE,39,0.0,7.0,65,0.00,,CLR,0.01,VWS V14.00,2013-04-13 20:39:00,
2013-04-13 15:44:00,35.4,24.5,29.90,NE,39,0.0,1.0,64,0.00,,CLR,0.01,VWS V14.00,2013-04-13 20:44:00,
2013-04-13 15:49:00,35.5,24.5,29.90,NE,40,3.0,8.0,64,0.00,,CLR,0.01,VWS V14.00,2013-04-13 20:49:00,
2013-04-13 15:54:00,35.6,24.6,29.90,NE,42,0.0,9.0,64,0.00,,CLR,0.01,VWS V14.00,2013-04-13 20:54:00,
2013-04-13 15:59:00,35.7,25.1,29.90,NE,42,5.0,9.0,65,0.00,,CLR,0.01,VWS V14.00,2013-04-13 20:59:00,
2013-04-13 16:04:00,36.0,25.4,29.89,NE,43,0.0,7.0,65,0.00,,CLR,0.01,VWS V14.00,2013-04-13 21:04:00,
2013-04-13 16:09:00,35.9,25.3,29.90,NE,43,0.0,7.0,65,0.00,,CLR,0.01,VWS V14.00,2013-04-13 21:09:00,
2013-04-13 16:14:00,35.9,25.3,29.90,NE,41,0.0,1.0,65,0.00,,CLR,0.01,VWS V14.00,2013-04-13 21:14:00,
2013-04-13 16:19:00,36.1,25.1,29.89,NNE,26,0.0,1.0,64,0.00,,CLR,0.01,VWS V14.00,2013-04-13 21:19:00,
2013-04-13 16:24:00,36.4,25.4,29.90,NE,36,4.0,8.0,64,0.00,,CLR,0.01,VWS V14.00,2013-04-13 21:24:00,
2013-04-13 16:29:00,35.9,24.5,29.89,NE,35,0.0,8.0,63,0.00,,CLR,0.01,VWS V14.00,2013-04-13 21:29:00,
2013-04-13 16:35:00,35.9,24.9,29.89,NNE,13,6.0,8.0,64,0.00,,CLR,0.01,VWS V14.00,2013-04-13 21:35:00,
2013-04-13 16:40:00,35.9,24.9,29.89,NNE,18,4.0,9.0,64,0.00,,CLR,0.01,VWS V14.00,2013-04-13 21:40:00,
2013-04-13 16:45:00,35.8,24.8,29.89,NNE,19,0.0,4.0,64,0.00,,CLR,0.01,VWS V14.00,2013-04-13 21:45:00,
2013-04-13 16:50:00,35.7,24.4,29.89,NNE,22,0.0,4.0,63,0.00,,CLR,0.01,VWS V14.00,2013-04-13 21:50:00,
2013-04-13 16:55:00,35.9,24.5,29.89,NNE,22,5.0,5.0,63,0.00,,CLR,0.01,VWS V14.00,2013-04-13 21:55:00,
2013-04-13 17:00:00,35.7,24.7,29.89,NE,34,0.0,8.0,64,0.00,,CLR,0.01,VWS V14.00,2013-04-13 22:00:00,
2013-04-13 17:05:00,35.7,25.1,29.89,NE,37,3.0,8.0,65,0.00,,CLR,0.01,VWS V14.00,2013-04-13 22:05:00,
2013-04-13 17:10:00,35.5,24.5,29.90,NNE,29,2.0,8.0,64,0.00,,CLR,0.01,VWS V14.00,2013-04-13 22:10:00,
2013-04-13 17:15:00,35.5,24.9,29.90,NNE,32,6.0,7.0,65,0.00,,CLR,0.01,VWS V14.00,2013-04-13 22:15:00,
2013-04-13 17:19:00,35.5,24.9,29.90,NNE,21,0.0,7.0,65,0.00,,CLR,0.01,VWS V14.00,2013-04-13 22:19:00,
2013-04-13 17:24:00,35.7,25.1,29.90,NNE,19,0.0,1.0,65,0.00,,CLR,0.01,VWS V14.00,2013-04-13 22:24:00,
2013-04-13 17:30:00,35.9,25.3,29.90,NNE,21,0.0,1.0,65,0.00,,CLR,0.01,VWS V14.00,2013-04-13 22:30:00,
2013-04-13 17:35:00,36.0,25.4,29.90,NNE,21,0.0,1.0,65,0.00,,CLR,0.01,VWS V14.00,2013-04-13 22:35:00,
2013-04-13 17:40:00,36.0,25.0,29.89,NNE,21,0.0,1.0,64,0.00,,CLR,0.01,VWS V14.00,2013-04-13 22:40:00,
2013-04-13 17:45:00,35.7,24.7,29.89,NNE,24,5.0,10.0,64,0.00,,CLR,0.01,VWS V14.00,2013-04-13 22:45:00,
2013-04-13 17:50:00,35.6,25.0,29.89,NNE,17,0.0,0.0,65,0.00,,CLR,0.01,VWS V14.00,2013-04-13 22:50:00,
2013-04-13 17:55:00,35.6,25.0,29.89,NNE,19,0.0,7.0,65,0.00,,CLR,0.01,VWS V14.00,2013-04-13 22:55:00,
2013-04-13 18:00:00,35.3,24.7,29.89,NNE,20,0.0,0.0,65,0.00,,CLR,0.01,VWS V14.00,2013-04-13 23:00:00,
2013-04-13 18:05:00,35.2,25.0,29.89,North,0,7.0,9.0,66,0.00,,CLR,0.01,VWS V14.00,2013-04-13 23:05:00,
2013-04-13 18:10:00,35.2,25.0,29.89,North,5,6.0,8.0,66,0.00,,CLR,0.01,VWS V14.00,2013-04-13 23:10:00,
2013-04-13 18:15:00,35.1,24.9,29.89,North,2,5.0,8.0,66,0.00,,CLR,0.01,VWS V14.00,2013-04-13 23:15:00,
2013-04-13 18:20:00,35.0,25.2,29.89,North,7,0.0,0.0,67,0.00,,CLR,0.01,VWS V14.00,2013-04-13 23:20:00,
2013-04-13 18:25:00,35.1,25.3,29.89,North,11,0.0,1.0,67,0.00,,CLR,0.01,VWS V14.00,2013-04-13 23:25:00,
2013-04-13 18:30:00,35.0,25.2,29.89,NNE,19,5.0,9.0,67,0.00,,CLR,0.01,VWS V14.00,2013-04-13 23:30:00,
2013-04-13 18:35:00,34.7,24.9,29.88,NNE,27,6.0,9.0,67,0.00,,CLR,0.01,VWS V14.00,2013-04-13 23:35:00,
2013-04-13 18:40:00,34.4,24.6,29.88,NNE,31,4.0,6.0,67,0.00,,CLR,0.01,VWS V14.00,2013-04-13 23:40:00,
2013-04-13 18:45:00,34.0,24.6,29.88,NNE,19,7.0,9.0,68,0.00,,CLR,0.01,VWS V14.00,2013-04-13 23:45:00,
2013-04-13 18:50:00,33.9,24.5,29.88,NNE,19,4.0,5.0,68,0.00,,CLR,0.01,VWS V14.00,2013-04-13 23:50:00,
2013-04-13 18:55:00,33.7,24.3,29.88,NNE,23,0.0,6.0,68,0.00,,CLR,0.01,VWS V14.00,2013-04-13 23:55:00,
2013-04-13 19:00:00,33.5,24.1,29.88,NNE,26,0.0,0.0,68,0.00,,CLR,0.01,VWS V14.00,2013-04-14 00:00:00,
2013-04-13 19:05:00,33.1,24.0,29.88,NNE,28,0.0,1.0,69,0.00,,CLR,0.01,VWS V14.00,2013-04-14 00:05:00,
2013-04-13 19:10:00,33.0,24.3,29.88,NNE,30,0.0,0.0,70,0.00,,CLR,0.01,VWS V14.00,2013-04-14 00:10:00,
2013-04-13 19:15:00,32.8,23.8,29.88,NNE,30,0.0,1.0,69,0.00,,CLR,0.01,VWS V14.00,2013-04-14 00:15:00,
2013-04-13 19:20:00,32.6,24.2,29.88,NNE,30,0.0,0.0,71,0.00,,CLR,0.01,VWS V14.00,2013-04-14 00:20:00,
2013-04-13 19:25:00,32.5,24.2,29.88,NNE,30,0.0,0.0,71,0.00,,CLR,0.01,VWS V14.00,2013-04-14 00:25:00,
2013-04-13 19:30:00,32.3,24.0,29.88,NNE,30,0.0,0.0,71,0.00,,CLR,0.01,VWS V14.00,2013-04-14 00:30:00,
2013-04-13 19:35:00,32.1,24.1,29.88,NNE,30,0.0,0.0,72,0.00,,CLR,0.01,VWS V14.00,2013-04-14 00:35:00,
2013-04-13 19:40:00,31.8,23.8,29.89,NNE,30,0.0,0.0,72,0.00,,CLR,0.01,VWS V14.00,2013-04-14 00:40:00,
2013-04-13 19:45:00,31.6,23.6,29.89,NNE,30,0.0,0.0,72,0.00,,CLR,0.01,VWS V14.00,2013-04-14 00:45:00,
2013-04-13 19:50:00,31.4,23.4,29.89,NNE,30,0.0,0.0,72,0.00,,CLR,0.01,VWS V14.00,2013-04-14 00:50:00,
2013-04-13 19:55:00,31.1,23.1,29.89,NNE,30,0.0,0.0,72,0.00,,CLR,0.01,VWS V14.00,2013-04-14 00:55:00,
2013-04-13 20:00:00,30.9,23.0,29.89,NNE,30,0.0,0.0,72,0.00,,CLR,0.01,VWS V14.00,2013-04-14 01:00:00,
2013-04-13 20:05:00,30.7,22.8,29.90,NNE,30,0.0,0.0,72,0.00,,CLR,0.01,VWS V14.00,2013-04-14 01:05:00,
2013-04-13 20:10:00,30.4,22.5,29.90,NNE,30,0.0,0.0,72,0.00,,CLR,0.01,VWS V14.00,2013-04-14 01:10:00,
2013-04-13 20:15:00,30.2,22.3,29.90,NNE,30,0.0,0.0,72,0.00,,CLR,0.01,VWS V14.00,2013-04-14 01:15:00,
2013-04-13 20:20:00,29.9,22.0,29.91,NNE,30,0.0,0.0,72,0.00,,CLR,0.01,VWS V14.00,2013-04-14 01:20:00,
2013-04-13 20:25:00,29.6,22.0,29.90,NNE,30,0.0,0.0,73,0.00,,CLR,0.01,VWS V14.00,2013-04-14 01:25:00,
2013-04-13 20:30:00,29.3,21.7,29.91,NNE,30,0.0,0.0,73,0.00,,CLR,0.01,VWS V14.00,2013-04-14 01:30:00,
2013-04-13 20:35:00,29.1,21.5,29.90,NNE,30,0.0,0.0,73,0.00,,CLR,0.01,VWS V14.00,2013-04-14 01:35:00,
2013-04-13 20:40:00,28.9,21.4,29.90,NNE,30,0.0,0.0,73,0.00,,CLR,0.01,VWS V14.00,2013-04-14 01:40:00,
2013-04-13 20:45:00,28.5,21.0,29.90,NNE,30,0.0,0.0,73,0.00,,CLR,0.01,VWS V14.00,2013-04-14 01:45:00,
2013-04-13 20:50:00,28.3,21.1,29.90,NNE,30,0.0,0.0,74,0.00,,CLR,0.01,VWS V14.00,2013-04-14 01:50:00,
2013-04-13 20:55:00,28.2,21.3,29.90,NNE,30,0.0,0.0,75,0.00,,CLR,0.01,VWS V14.00,2013-04-14 01:55:00,
2013-04-13 21:00:00,28.0,21.1,29.91,NNE,30,0.0,0.0,75,0.00,,CLR,0.01,VWS V14.00,2013-04-14 02:00:00,
2013-04-13 21:06:00,27.8,21.2,29.91,NNE,30,0.0,0.0,76,0.00,,CLR,0.01,VWS V14.00,2013-04-14 02:06:00,
2013-04-13 21:11:00,27.6,21.0,29.92,NNE,30,0.0,0.0,76,0.00,,CLR,0.01,VWS V14.00,2013-04-14 02:11:00,
2013-04-13 21:16:00,27.3,20.8,29.92,NNE,30,0.0,0.0,76,0.00,,CLR,0.01,VWS V14.00,2013-04-14 02:16:00,
2013-04-13 21:21:00,27.1,20.9,29.92,NNE,30,0.0,0.0,77,0.00,,CLR,0.01,VWS V14.00,2013-04-14 02:21:00,
2013-04-13 21:26:00,26.9,20.7,29.92,NNE,30,0.0,0.0,77,0.00,,CLR,0.01,VWS V14.00,2013-04-14 02:26:00,
2013-04-13 21:31:00,26.8,20.6,29.92,NNE,30,0.0,0.0,77,0.00,,CLR,0.01,VWS V14.00,2013-04-14 02:31:00,
2013-04-13 21:36:00,26.8,20.9,29.92,NNE,30,0.0,0.0,78,0.00,,CLR,0.01,VWS V14.00,2013-04-14 02:36:00,
2013-04-13 21:41:00,26.7,20.8,29.92,NNE,30,0.0,0.0,78,0.00,,CLR,0.01,VWS V14.00,2013-04-14 02:41:00,
2013-04-13 21:46:00,26.6,20.7,29.92,NNE,30,0.0,0.0,78,0.00,,CLR,0.01,VWS V14.00,2013-04-14 02:46:00,
2013-04-13 21:51:00,26.6,21.0,29.92,NNE,30,0.0,0.0,79,0.00,,CLR,0.01,VWS V14.00,2013-04-14 02:51:00,
2013-04-13 21:56:00,26.6,21.0,29.92,NNE,30,0.0,0.0,79,0.00,,CLR,0.01,VWS V14.00,2013-04-14 02:56:00,
2013-04-13 22:01:00,26.4,20.8,29.92,NNE,30,0.0,0.0,79,0.00,,CLR,0.01,VWS V14.00,2013-04-14 03:01:00,
2013-04-13 22:06:00,26.2,20.6,29.92,NNE,30,0.0,0.0,79,0.00,,CLR,0.01,VWS V14.00,2013-04-14 03:06:00,
2013-04-13 22:12:00,26.1,20.5,29.92,NNE,30,0.0,0.0,79,0.00,,CLR,0.01,VWS V14.00,2013-04-14 03:12:00,
2013-04-13 22:17:00,26.0,20.7,29.92,NNE,30,0.0,0.0,80,0.00,,CLR,0.01,VWS V14.00,2013-04-14 03:17:00,
2013-04-13 22:22:00,25.9,20.6,29.92,NNE,30,0.0,0.0,80,0.00,,CLR,0.01,VWS V14.00,2013-04-14 03:22:00,
2013-04-13 22:27:00,25.8,20.8,29.92,NNE,30,0.0,0.0,81,0.00,,CLR,0.01,VWS V14.00,2013-04-14 03:27:00,
2013-04-13 22:32:00,25.6,20.3,29.93,NNE,30,0.0,0.0,80,0.00,,CLR,0.01,VWS V14.00,2013-04-14 03:32:00,
2013-04-13 22:37:00,25.4,20.4,29.93,NNE,30,0.0,0.0,81,0.00,,CLR,0.01,VWS V14.00,2013-04-14 03:37:00,
2013-04-13 22:42:00,25.1,20.1,29.93,NNE,30,0.0,0.0,81,0.00,,CLR,0.01,VWS V14.00,2013-04-14 03:42:00,
2013-04-13 22:47:00,24.9,19.9,29.93,NNE,30,0.0,0.0,81,0.00,,CLR,0.01,VWS V14.00,2013-04-14 03:47:00,
2013-04-13 22:52:00,24.6,19.9,29.93,NNE,30,0.0,0.0,82,0.00,,CLR,0.01,VWS V14.00,2013-04-14 03:52:00,
2013-04-13 22:57:00,24.4,19.7,29.93,NNE,30,0.0,0.0,82,0.00,,CLR,0.01,VWS V14.00,2013-04-14 03:57:00,
2013-04-13 23:00:00,24.3,19.3,29.93,NNE,30,0.0,0.0,81,0.00,,CLR,0.01,VWS V14.00,2013-04-14 04:00:00,
2013-04-13 23:05:00,24.0,19.3,29.93,NNE,30,0.0,0.0,82,0.00,,CLR,0.01,VWS V14.00,2013-04-14 04:05:00,
2013-04-13 23:10:00,23.7,19.0,29.93,NNE,30,0.0,0.0,82,0.00,,CLR,0.01,VWS V14.00,2013-04-14 04:10:00,
2013-04-13 23:15:00,23.4,18.7,29.93,NNE,30,0.0,0.0,82,0.00,,CLR,0.01,VWS V14.00,2013-04-14 04:15:00,
2013-04-13 23:20:00,23.2,18.5,29.93,NNE,30,0.0,0.0,82,0.00,,CLR,0.01,VWS V14.00,2013-04-14 04:20:00,
2013-04-13 23:25:00,22.9,18.2,29.93,NNE,30,0.0,0.0,82,0.00,,CLR,0.01,VWS V14.00,2013-04-14 04:25:00,
2013-04-13 23:30:00,22.6,17.9,29.93,NNE,30,0.0,0.0,82,0.00,,CLR,0.01,VWS V14.00,2013-04-14 04:30:00,
2013-04-13 23:35:00,22.5,18.1,29.93,NNE,30,0.0,0.0,83,0.00,,CLR,0.01,VWS V14.00,2013-04-14 04:35:00,
2013-04-13 23:40:00,22.5,18.1,29.92,NNE,30,0.0,0.0,83,0.00,,CLR,0.01,VWS V14.00,2013-04-14 04:40:00,
2013-04-13 23:45:00,22.3,17.9,29.93,NNE,30,0.0,0.0,83,0.00,,CLR,0.01,VWS V14.00,2013-04-14 04:45:00,
2013-04-13 23:50:00,22.2,17.8,29.93,NNE,30,0.0,0.0,83,0.00,,CLR,0.01,VWS V14.00,2013-04-14 04:50:00,
2013-04-13 23:55:00,22.1,18.0,29.92,NNE,30,0.0,0.0,84,0.00,,CLR,0.01,VWS V14.00,2013-04-14 04:55:00,